Location: Launay
(47.2429°N, 1.5727°E)
Time: 07:02:02
(UTC+00:00)

Cosmos 1726 Rocket - Pass Details

Date: 19 May 2025
Orbit: 554 x 664 km, 82.5° (Epoch: 18 June)

Event Time Altitude Azimuth Distance (km) Brightness Sun altitude
Rises 20:18:01 0° 190° (S) 2,965 6.7 -7.6°
Reaches altitude 10° 20:20:17 10° 191° (SSW) 2,047 5.9 -7.9°
Maximum altitude 20:24:50 81° 279° (W) 651 3.8 -8.5°
Drops below altitude 10° 20:29:18 10° 7° (N) 2,001 6.7 -9.1°
Sets 20:31:30 0° 9° (N) 2,894 7.5 -9.3°
